Skip Page Navigation
NASA JPL Caltech
NASA Logo - Jet Propulsion Laboratory + View the NASA Portal
+ Near-Earth Object (NEO) Program
Search JPL
JPL Home Earth Solar System Stars & Galaxies Technology
JPL Solar System Dynamics
BODIES ORBITS EPHEMERIDES TOOLS PHYSICAL DATA DISCOVERY FAQ SITE MAP
JPL Small-Body Database Browser
Search: [ help ]  
C/1948 V1 (Eclipse comet)
Classification: Comet          SPK-ID: 1001072
Ephemeris | Orbit Diagram | Orbital Elements ]

[ hide orbit diagram ]
Orbit Diagram
Note: Make sure you have Java enabled on your browser to see the applet. This applet is provided as a 3D orbit visualization tool. The applet was implemented using 2-body methods, and hence should not be used for determining accurate long-term trajectories (over several years or decades) or planetary encounter circumstances. For accurate long-term ephemerides, please instead use our Horizons system.
Orbit Viewer

Additional Notes: the orbits shown in the applet are color coded. The planets are white lines, and the asteroid/comet is a blue line. The bright white line indicates the portion of the orbit that is above the ecliptic plane, and the darker portion is below the ecliptic plane. Likewise for the asteroid/comet orbit, the light blue indicates the portion above the ecliptic plane, and the dark blue the portion below the ecliptic plane.

Orbit Viewer applet originally written and kindly provided by Osamu Ajiki (AstroArts), and further modified by Ron Baalke (JPL).


Orbital Elements at Epoch 2432840.5 (1948-Oct-16.0) TDB
Reference: SAO_2008 (heliocentric ecliptic J2000)
 Element Value Uncertainty (1-sigma)   Units 
e 0.999935 n/a  
a 2083.4000000 n/a AU
q 0.135421 n/a AU
i 23.1170 n/a deg
node 211.0395 n/a deg
peri 107.2521 n/a deg
M 359.9998816 n/a deg
tp 2432851.9271
(1948-Oct-27.42710000)
n/a JED
period n/a
n/a
n/a
n/a
d
yr
n 0.0000104 n/a deg/d
Q 4166.6645790 n/a AU
  Orbit Determination Parameters
   # obs. used (total)      147  
   data-arc span      146 days  
   first obs. used      1948-11-08  
   last obs. used      1949-04-03  
   producer      Hirst  

Additional Information
 T_jup = 0.422 
 time units are UT, but set to ET 
 2008 SAO Comet Catalog 

Ephemeris | Orbit Diagram | Orbital Elements ]

no physical parameters available
Ephemeris | Orbit Diagram | Orbital Elements ]
ABOUT SSD CREDITS/AWARDS PRIVACY/COPYRIGHT GLOSSARY LINKS
FirstGov 2013-May-24 06:39 UT
(server date/time)  
NASA Home Page
Site Manager:   Donald K. Yeomans
Webmaster  Alan B. Chamberlin